User: anonymous   Login
Location: Unspecified
(0.0000°N, 0.0000°E)
Time: 13:54:31
(UTC+00:00)
Language:

Intelsat 706 - Orbit

View from above orbital plane
View from above orbital plane
View from above satellite
View from above satellite

Ground track
Ground track

The orbit data is extracted from the following two-line orbital elements,

1 23571U 95023A   19047.60500854 +.00000051 +00000-0 +00000-0 0  9992
2 23571 005.5956 062.0483 0004232 289.2467 237.9647 00.99050590086809
Epoch (UTC): 16 February 2019 14:31:12
Eccentricity: 0.0004232
inclination: 5.5956°
perigee height: 36114 km
apogee height: 36150 km
right ascension of ascending node: 62.0483°
argument of perigee: 289.2467°
revolutions per day: 0.99050590
mean anomaly at epoch: 237.9647°
orbit number at epoch: 8680

The dashed part of the orbit path shows where the satellite is in the earth's shadow,  

DLR